Bishop, CA

9:01 PM PST on February 22, 2017 (GMT -0800)
Bishop

Weather History for KBIH - May, 2013

Change the Weather History Date:

Monday, May 20, 2013

  Actual Average Record
Temperature  
Mean Temperature 66 °F 64 °F  
Max Temperature 83 °F 84 °F 96 °F (1984)
Min Temperature 49 °F 45 °F 31 °F (1974)
Degree Days  
Heating Degree Days 0 3  
Month to date heating degree days 52 92  
Since 1 July heating degree days 3833 4134  
Cooling Degree Days 1 2  
Month to date cooling degree days 37 26  
Year to date cooling degree days 57 30  
Growing Degree Days 15 (Base 50)    
Moisture  
Dew Point 15 °F    
Average Humidity 18    
Maximum Humidity 30    
Minimum Humidity 5    
Precipitation  
Precipitation 0.00 in 0.00 in 0.36 in (1987)
Month to date precipitation 0.47 0.11  
Year to date precipitation 0.47 2.80  
Snow  
Snow 0.00 in 0.00 in T in (1987)
Month to date snowfall 0.0 0.0  
Since 1 July snowfall 2.8 8.0  
Snow Depth 0.00 in    
Sea Level Pressure  
Sea Level Pressure 29.98 in    
Wind  
Wind Speed 8 mph (NW)    
Max Wind Speed 20 mph    
Max Gust Speed 25 mph    
Visibility 10 miles    
Events      
T = Trace of Precipitation, MM = Missing Value Source: NWS Daily Summary

Daily Weather History Graph

Daily Weather History Graph

Search for Another Location

Airport or City:

Trip Planner

Search our weather history database for the weather conditions in past years. The results will help you decide how hot, cold, wet, or windy it might be!

Date:

Astronomy

May. 20, 2013 Rise Set
Actual Time 5:40 AM PDT 7:59 PM PDT
Civil Twilight 5:10 AM PDT 8:29 PM PDT
Nautical Twilight 4:34 AM PDT 9:06 PM PDT
Astronomical Twilight 3:54 AM PDT 9:46 PM PDT
Moon 3:18 PM PDT (5/20) 2:31 AM PDT (5/20)
Length of Visible Light 15h 18m
Length of Day
14h 19m
Waxing Gibbous, 76% of the Moon is Illuminated
May 20
Waxing Gibbous
May 24
Full
May 31
Last Quarter
Jun 8
New
Jun 16
First Quarter

Hourly Weather History & Observations

Time (PDT) Temp. Dew Point Humidity Pressure Visibility Wind Dir Wind Speed Gust Speed Precip Events Conditions
12:56 AM 59.0 °F 19.0 °F 21% 30.02 in 10.0 mi North 12.7 mph - N/A   Clear
1:56 AM 57.0 °F 19.9 °F 24% 30.02 in 10.0 mi North 9.2 mph - N/A   Clear
2:56 AM 54.0 °F 19.9 °F 26% 30.03 in 10.0 mi NNW 11.5 mph - N/A   Clear
3:56 AM 55.0 °F 19.0 °F 24% 30.03 in 10.0 mi NNW 9.2 mph - N/A   Clear
4:56 AM 51.1 °F 19.9 °F 29% 30.06 in 10.0 mi NNW 6.9 mph - N/A   Clear
5:56 AM 51.1 °F 21.0 °F 31% 30.08 in 10.0 mi NNW 6.9 mph - N/A   Clear
6:56 AM 55.0 °F 21.9 °F 28% 30.09 in 10.0 mi North 4.6 mph - N/A   Clear
7:56 AM 62.1 °F 21.9 °F 21% 30.10 in 10.0 mi North 17.3 mph 23.0 mph N/A   Clear
8:56 AM 64.9 °F 21.0 °F 19% 30.10 in 10.0 mi North 17.3 mph 23.0 mph N/A   Clear
9:56 AM 68.0 °F 19.9 °F 16% 30.09 in 10.0 mi NNW 6.9 mph 19.6 mph N/A   Clear
10:56 AM 71.1 °F 19.0 °F 14% 30.07 in 10.0 mi WNW 9.2 mph - N/A   Clear
11:56 AM 72.0 °F 17.1 °F 12% 30.04 in 10.0 mi Variable 4.6 mph - N/A   Clear
12:56 PM 75.0 °F 15.1 °F 10% 30.01 in 10.0 mi Variable 5.8 mph - N/A   Clear
1:56 PM 75.9 °F 14.0 °F 10% 29.99 in 10.0 mi Calm Calm - N/A   Clear
2:56 PM 79.0 °F 12.9 °F 8% 29.95 in 10.0 mi WSW 6.9 mph - N/A   Clear
3:56 PM 80.1 °F 9.0 °F 7% 29.91 in 10.0 mi Variable 3.5 mph - N/A   Clear
4:56 PM 81.0 °F 6.1 °F 6% 29.89 in 10.0 mi Calm Calm - N/A   Clear
5:56 PM 82.0 °F 3.0 °F 5% 29.87 in 10.0 mi SSW 8.1 mph - N/A   Clear
6:56 PM 81.0 °F 5.0 °F 5% 29.86 in 10.0 mi SSE 6.9 mph - N/A   Clear
7:56 PM 75.9 °F 8.1 °F 7% 29.86 in 10.0 mi SSE 10.4 mph - N/A   Clear
8:56 PM 73.0 °F 12.9 °F 10% 29.87 in 10.0 mi SSE 13.8 mph - N/A   Clear
9:56 PM 70.0 °F 15.1 °F 12% 29.88 in 10.0 mi SSE 12.7 mph - N/A   Clear
10:56 PM 69.1 °F 15.1 °F 13% 29.89 in 10.0 mi SSE 11.5 mph - N/A   Clear
11:56 PM 61.0 °F 18.0 °F 19% 29.90 in 10.0 mi SW 5.8 mph - N/A   Clear